{"data":{"norad_id":58238,"epoch":"2026-09-20T08:35:06.950976Z","epoch_age_seconds":155984,"freshness":"FRESH","line1":"1 58238U 23171J   26263.35771934 -.00000015  00000+0  89741-5 0  9998","line2":"2 58238  43.0015 266.0907 0001105 262.4354  97.6372 15.27572058159500","mean_motion":15.27572058,"eccentricity":0.0001105,"inclination_deg":43.0015,"raan_deg":266.0907,"arg_perigee_deg":262.4354,"mean_anomaly_deg":97.6372,"bstar":8.9741e-6,"rev_number":15950,"period_min":94.267238815912,"perigee_km":482.31471365636,"apogee_km":483.83104103925,"semimajor_km":6861.2098773478,"source":"CELESTRAK","updated_at":"2026-09-21T09:00:33.837545Z"}}